Location: Unspecified
(41.9031°N, 12.4386°E)
Time: 05:47:50
(UTC+01:00)

ISS - Pass Details

Date: 11 December 2019
Orbit: 411 x 421 km, 51.6° (Epoch: 15 December)

Event Time Altitude Azimuth Distance (km) Brightness Sun altitude
Rises 17:36:40 0° 301° (WNW) 2,357 0.6 -10.4°
Reaches altitude 10° 17:38:47 10° 296° (WNW) 1,493 -0.3 -10.8°
Maximum altitude 17:42:02 50° 220° (SW) 539 -2.8 -11.4°
Drops below altitude 10° 17:45:18 10° 144° (SE) 1,490 -1.1 -11.9°
Sets 17:47:25 0° 139° (SE) 2,352 -0.2 -12.3°
